Weather History for Thermal, CA

Change the Weather History Date:

Wednesday, July 24, 2013

  Actual Average Record
Temperature  
Mean Temperature 98 °F 91 °F  
Max Temperature 110 °F 107 °F 117 °F (2000)
Min Temperature 86 °F 75 °F 65 °F (2008)
Degree Days  
Heating Degree Days 0 0  
Month to date heating degree days 0 0  
Since 1 June heating degree days 0 0  
Since 1 July heating degree days 0 0  
Cooling Degree Days 33 26  
Month to date cooling degree days 690 607  
Year to date cooling degree days 2320 1888  
Since 1 June cooling degree days 1413 1215  
Growing Degree Days 48 (Base 50)    
Moisture  
Dew Point 58 °F    
Average Humidity 30    
Maximum Humidity 40    
Minimum Humidity 20    
Precipitation  
Precipitation 0.00 in 0.01 in 0.04 in (1952)
Month to date precipitation 0.05 0.10  
Year to date precipitation 0.49 1.92  
Since 1 July precipitation 0.05 0.10  
Snow  
Snow 0.00 in - - ()
Month to date snowfall 0.0  
Year to date snowfall 0.0  
Since 1 July snowfall 0.0  
Snow Depth 0.00 in    
Sea Level Pressure  
Sea Level Pressure 29.74 in    
Wind  
Wind Speed 8 mph (NW)    
Max Wind Speed 16 mph    
Max Gust Speed 21 mph    
Visibility 10 miles    
Events      
T = Trace of Precipitation, MM = Missing Value Source: NWS Daily Summary

Daily Weather History Graph

Daily Weather History Graph

Search for Another Location

Airport:

Trip Planner

Search our weather history database for the weather conditions in past years. The results will help you decide how hot, cold, wet, or windy it might be!

Date:

Astronomy

Jul. 24, 2013 Rise Set
Actual Time 5:51 AM PDT 7:50 PM PDT
Civil Twilight 5:23 AM PDT 8:18 PM PDT
Nautical Twilight 4:50 AM PDT 8:51 PM PDT
Astronomical Twilight 4:13 AM PDT 9:27 PM PDT
Moon 9:10 PM PDT (7/24) 8:06 AM PDT (7/24)
Length of Visible Light 14h 54m
Length of Day
13h 58m
Waning Gibbous, 94% of the Moon is Illuminated
Jul 24
Waning Gibbous
Jul 29
Last Quarter
Aug 6
New
Aug 14
First Quarter
Aug 20
Full

Hourly Weather History & Observations

Time (PDT) Temp. Heat Index Dew Point Humidity Pressure Visibility Wind Dir Wind Speed Gust Speed Precip Events Conditions
12:52 AM 91.0 °F 90.2 °F 59.0 °F 34% 29.78 in 10.0 mi NW 12.7 mph - N/A   Clear
1:52 AM 90.0 °F 89.1 °F 59.0 °F 35% 29.77 in 10.0 mi NW 11.5 mph 19.6 mph N/A   Clear
2:52 AM 88.0 °F 87.1 °F 59.0 °F 37% 29.76 in 10.0 mi NW 11.5 mph 20.7 mph N/A   Clear
3:52 AM 88.0 °F 87.1 °F 59.0 °F 37% 29.77 in 10.0 mi NW 11.5 mph - N/A   Clear
4:52 AM 87.1 °F 86.5 °F 59.0 °F 39% 29.78 in 10.0 mi NW 8.1 mph - N/A   Clear
5:52 AM 86.0 °F 85.4 °F 59.0 °F 40% 29.78 in 10.0 mi NW 9.2 mph - N/A   Clear
6:52 AM 87.1 °F 86.7 °F 60.1 °F 40% 29.79 in 10.0 mi NW 6.9 mph - N/A   Clear
7:52 AM 90.0 °F 90.0 °F 61.0 °F 38% 29.80 in 10.0 mi NW 8.1 mph - N/A   Clear
8:52 AM 93.9 °F 94.8 °F 62.1 °F 35% 29.80 in 10.0 mi NNW 5.8 mph - N/A   Clear
9:52 AM 97.0 °F 97.4 °F 61.0 °F 30% 29.80 in 10.0 mi Variable 4.6 mph - N/A   Clear
10:52 AM 100.9 °F 101.6 °F 60.1 °F 26% 29.79 in 10.0 mi South 6.9 mph - N/A   Clear
11:52 AM 102.9 °F 104.8 °F 62.1 °F 26% 29.77 in 10.0 mi Variable 6.9 mph - N/A   Clear
12:52 PM 105.1 °F 107.1 °F 61.0 °F 24% 29.75 in 10.0 mi Variable 4.6 mph - N/A   Clear
1:52 PM 108.0 °F 108.8 °F 59.0 °F 20% 29.73 in 10.0 mi SE 9.2 mph - N/A   Clear
2:52 PM 108.0 °F 108.0 °F 57.9 °F 19% 29.70 in 10.0 mi Variable 4.6 mph - N/A   Clear
3:52 PM 108.0 °F 108.8 °F 59.0 °F 20% 29.67 in 10.0 mi Variable 5.8 mph - N/A   Clear
4:52 PM 109.0 °F 111.3 °F 61.0 °F 21% 29.65 in 10.0 mi SE 6.9 mph - N/A   Clear
5:52 PM 108.0 °F 110.3 °F 62.1 °F 22% 29.63 in 10.0 mi South 6.9 mph - N/A   Clear
6:52 PM 107.1 °F 105.4 °F 53.1 °F 17% 29.65 in 10.0 mi NNW 13.8 mph - N/A   Clear
7:52 PM 102.0 °F - 52.0 °F 19% 29.66 in 10.0 mi NNW 15.0 mph 23.0 mph N/A   Clear
8:52 PM 99.0 °F - 52.0 °F 21% 29.68 in 10.0 mi NNW 15.0 mph 23.0 mph N/A   Clear
9:52 PM 96.1 °F 93.8 °F 54.0 °F 24% 29.71 in 10.0 mi North 15.0 mph 23.0 mph N/A   Clear
10:52 PM 96.1 °F 93.5 °F 53.1 °F 23% 29.71 in 10.0 mi NW 15.0 mph - N/A   Clear
11:52 PM 93.9 °F 91.4 °F 53.1 °F 25% 29.72 in 10.0 mi NNW 9.2 mph - N/A   Clear